, CO

(GMT )
Cottonwood Pass

Weather History for K7BM - April, 2014

Change the Weather History Date:

Sunday, April 13, 2014

  Actual Average Record
Temperature  
Mean Temperature 28 °F -  
Max Temperature 41 °F - - ()
Min Temperature 14 °F - - ()
Degree Days  
Heating Degree Days 37    
Moisture  
Dew Point 25 °F    
Average Humidity 76    
Maximum Humidity 100    
Minimum Humidity 49    
Precipitation  
Precipitation 0.00 in - - ()
Sea Level Pressure  
Sea Level Pressure 29.83 in    
Wind  
Wind Speed 8 mph (SSE)    
Max Wind Speed 28 mph    
Max Gust Speed 34 mph    
Visibility 5 miles    
Events Fog , Snow , Thunderstorm    
T = Trace of Precipitation, MM = Missing Value Source: NWS Daily Summary

Daily Weather History Graph

Daily Weather History Graph

Search for Another Location

Airport or City:

Trip Planner

Search our weather history database for the weather conditions in past years. The results will help you decide how hot, cold, wet, or windy it might be!

Date:

Astronomy

Apr. 13, 2014 Rise Set
Actual Time 6:31 AM MDT 7:40 PM MDT
Civil Twilight 6:03 AM MDT 8:07 PM MDT
Nautical Twilight 5:31 AM MDT 8:40 PM MDT
Astronomical Twilight 4:57 AM MDT 9:14 PM MDT
Moon 6:21 PM MDT (4/13) 5:30 AM MDT (4/13)
Length of Visible Light 14h 03m
Length of Day
13h 08m
Waxing Gibbous, 97% of the Moon is Illuminated
Apr 13
Waxing Gibbous
Apr 15
Full
Apr 22
Last Quarter
Apr 29
New
May 6
First Quarter

Hourly Weather History & Observations

Time (MDT) Temp. Windchill Dew Point Humidity Pressure Visibility Wind Dir Wind Speed Gust Speed Precip Events Conditions
12:15 AM 41.0 °F 33.9 °F 23.0 °F 49% 29.86 in 10.0 mi WNW 12.7 mph 21.9 mph N/A   Clear
12:35 AM 41.0 °F 32.5 °F 23.0 °F 49% 29.86 in 10.0 mi West 17.3 mph 25.3 mph N/A   Clear
12:55 AM 41.0 °F 32.2 °F 23.0 °F 49% 29.85 in 10.0 mi West 18.4 mph 28.8 mph N/A   Clear
1:15 AM 41.0 °F 33.5 °F 23.0 °F 49% 29.85 in 10.0 mi West 13.8 mph 27.6 mph N/A   Clear
1:35 AM 41.0 °F 32.5 °F 23.0 °F 49% 29.84 in 10.0 mi WNW 17.3 mph 27.6 mph N/A   Scattered Clouds
1:55 AM 39.2 °F 32.0 °F 24.8 °F 56% 29.84 in 10.0 mi WNW 11.5 mph 19.6 mph N/A   Mostly Cloudy
2:15 AM 39.2 °F 35.0 °F 24.8 °F 56% 29.84 in 10.0 mi NW 5.8 mph - N/A   Mostly Cloudy
2:35 AM 37.4 °F 33.8 °F 24.8 °F 60% 29.83 in 10.0 mi North 4.6 mph - N/A   Scattered Clouds
2:55 AM 39.2 °F 35.0 °F 24.8 °F 56% 29.82 in 10.0 mi NNW 5.8 mph - N/A   Scattered Clouds
3:15 AM 39.2 °F 34.2 °F 24.8 °F 56% 29.81 in 10.0 mi North 6.9 mph - N/A Thunderstorm Scattered Clouds
3:35 AM 39.2 °F - 24.8 °F 56% 29.82 in 10.0 mi Calm Calm - N/A   Mostly Cloudy
3:55 AM 37.4 °F - 26.6 °F 65% 29.82 in 10.0 mi Calm Calm - N/A   Scattered Clouds
4:15 AM 37.4 °F - 26.6 °F 65% 29.81 in 10.0 mi Calm Calm - N/A   Clear
4:35 AM 37.4 °F 32.1 °F 24.8 °F 60% 29.81 in 10.0 mi West 6.9 mph - N/A   Clear
4:55 AM 37.4 °F 34.9 °F 24.8 °F 60% 29.81 in 10.0 mi South 3.5 mph - N/A   Clear
5:15 AM 37.4 °F 32.1 °F 24.8 °F 60% 29.80 in 10.0 mi SW 6.9 mph - N/A   Scattered Clouds
5:35 AM 39.2 °F 35.0 °F 24.8 °F 56% 29.79 in 10.0 mi SSW 5.8 mph - N/A   Mostly Cloudy
5:55 AM 35.6 °F 32.8 °F 26.6 °F 70% 29.80 in 10.0 mi South 3.5 mph - N/A   Mostly Cloudy
6:15 AM 35.6 °F - 26.6 °F 70% 29.79 in 10.0 mi Calm Calm - N/A   Mostly Cloudy
6:35 AM 35.6 °F 30.7 °F 26.6 °F 70% 29.79 in 10.0 mi SSE 5.8 mph - N/A   Overcast
6:55 AM 37.4 °F 33.8 °F 26.6 °F 65% 29.79 in 10.0 mi SE 4.6 mph - N/A   Overcast
7:15 AM 35.6 °F 29.9 °F 28.4 °F 75% 29.79 in 4.0 mi WSW 6.9 mph - N/A Snow Light Snow
7:34 AM 35.6 °F - 28.4 °F 75% 29.80 in 10.0 mi Calm Calm - N/A Thunderstorm Overcast
7:54 AM 35.6 °F - 28.4 °F 75% 29.80 in 10.0 mi Calm Calm - N/A   Overcast
8:15 AM 37.4 °F 34.9 °F 28.4 °F 70% 29.80 in 10.0 mi East 3.5 mph - N/A   Overcast
8:35 AM 37.4 °F 32.1 °F 28.4 °F 70% 29.79 in 10.0 mi SE 6.9 mph - N/A   Overcast
8:55 AM 35.6 °F 32.8 °F 28.4 °F 75% 29.79 in 10.0 mi SE 3.5 mph - N/A   Overcast
9:35 AM 39.2 °F 37.0 °F 28.4 °F 65% 29.79 in 10.0 mi ESE 3.5 mph - N/A   Overcast
9:55 AM 41.0 °F 38.0 °F 28.4 °F 61% 29.78 in 10.0 mi ESE 4.6 mph - N/A   Overcast
10:15 AM 37.4 °F 31.4 °F 32.0 °F 81% 29.79 in 1.8 mi SE 8.1 mph - N/A Snow Light Snow
10:35 AM 35.6 °F - 32.0 °F 87% 29.78 in 1.8 mi Calm Calm - N/A Snow Light Snow
10:54 AM 41.0 °F - 33.8 °F 76% 29.78 in 3.0 mi Calm Calm - N/A   Unknown
11:15 AM 41.0 °F 37.1 °F 32.0 °F 70% 29.76 in 10.0 mi ESE 5.8 mph - N/A   Overcast
11:35 AM 41.0 °F 35.8 °F 32.0 °F 70% 29.76 in 10.0 mi SSE 8.1 mph - N/A   Overcast
11:55 AM 37.4 °F - 32.0 °F 81% 29.76 in 2.0 mi Calm Calm - N/A Snow Light Snow
12:15 PM 35.6 °F - 32.0 °F 87% 29.75 in 0.5 mi Calm Calm - N/A Snow Snow
12:35 PM 35.6 °F 29.2 °F 33.8 °F 93% 29.74 in 0.2 mi SSE 8.1 mph - N/A Snow Snow
12:55 PM 39.2 °F 31.2 °F 35.6 °F 87% 29.72 in 0.2 mi SSE 13.8 mph 19.6 mph N/A Thunderstorm Unknown
1:15 PM 35.6 °F 23.0 °F 32.0 °F 87% 29.70 in 1.5 mi SE 27.6 mph 34.5 mph N/A Thunderstorm Overcast
1:35 PM 33.8 °F 21.3 °F 32.0 °F 93% 29.70 in 0.2 mi SE 24.2 mph 34.5 mph N/A Snow , Thunderstorm Light Thunderstorms and Snow
1:55 PM 32.0 °F 18.6 °F 32.0 °F 100% 29.76 in 0.2 mi WSW 25.3 mph 34.5 mph N/A Snow Snow
2:15 PM 33.8 °F 24.3 °F 28.4 °F 81% 29.75 in - WNW 13.8 mph 29.9 mph N/A   Overcast
2:35 PM 37.4 °F 34.9 °F 28.4 °F 70% 29.75 in 10.0 mi NE 3.5 mph - N/A   Mostly Cloudy
2:55 PM 35.6 °F 25.9 °F 32.0 °F 87% 29.77 in 0.2 mi SE 16.1 mph 19.6 mph N/A Fog , Thunderstorm Fog
3:14 PM 32.0 °F 22.5 °F 32.0 °F 100% 29.77 in 0.2 mi SSE 12.7 mph - N/A Snow , Thunderstorm Light Thunderstorms and Snow
3:35 PM 32.0 °F 26.4 °F 32.0 °F 100% 29.76 in 0.5 mi SE 5.8 mph 9.2 mph N/A Snow , Thunderstorm Light Thunderstorms and Snow
3:55 PM 32.0 °F 28.7 °F 30.2 °F 93% 29.77 in 0.2 mi ESE 3.5 mph - N/A Snow , Thunderstorm Snow
4:15 PM 32.0 °F - 30.2 °F 93% 29.77 in 0.5 mi Calm Calm - N/A Snow Snow
4:35 PM 30.2 °F - 28.4 °F 93% 29.79 in 0.2 mi Calm Calm - N/A Snow Snow
4:55 PM 28.4 °F - 24.8 °F 86% 29.82 in 0.2 mi Calm Calm - N/A Snow Heavy Snow
5:15 PM 28.4 °F - 23.0 °F 80% 29.82 in 0.2 mi Calm Calm - N/A Snow Heavy Snow
5:35 PM 26.6 °F - 23.0 °F 86% 29.83 in 0.2 mi Calm Calm - N/A Snow Heavy Snow
5:55 PM 26.6 °F - 21.2 °F 80% 29.84 in 0.2 mi Calm Calm - N/A Snow Snow
6:15 PM 24.8 °F - 21.2 °F 86% 29.84 in 0.5 mi Calm Calm - N/A Snow Snow
6:35 PM 23.0 °F - 21.2 °F 93% 29.84 in 0.5 mi Calm Calm - N/A Snow Snow
6:55 PM 23.0 °F - 19.4 °F 86% 29.84 in 0.8 mi Calm Calm - N/A Snow Light Snow
7:15 PM 23.0 °F - 19.4 °F 86% 29.87 in 0.5 mi Calm Calm - N/A Snow Snow
7:35 PM 21.2 °F - 17.6 °F 86% 29.89 in 0.2 mi Calm Calm - N/A Snow Heavy Snow
7:55 PM 21.2 °F 16.4 °F 17.6 °F 86% 29.90 in 0.5 mi SE 3.5 mph - N/A Snow Heavy Snow
8:15 PM 21.2 °F 14.9 °F 17.6 °F 86% 29.90 in 0.5 mi ESE 4.6 mph - N/A Snow Snow
8:35 PM 19.4 °F 10.4 °F 15.8 °F 86% 29.91 in 1.0 mi ESE 6.9 mph - N/A Snow Snow
8:55 PM 19.4 °F 11.5 °F 15.8 °F 86% 29.92 in 1.2 mi ESE 5.8 mph - N/A Snow Light Snow
9:15 PM 19.4 °F 9.5 °F 15.8 °F 86% 29.93 in 1.2 mi SE 8.1 mph - N/A Snow Light Snow
9:35 PM 19.4 °F 11.5 °F 15.8 °F 86% 29.94 in 1.0 mi SE 5.8 mph - N/A Snow Snow
9:55 PM 19.4 °F 14.3 °F 14.0 °F 80% 29.95 in 1.0 mi SE 3.5 mph - N/A Snow Snow
10:15 PM 19.4 °F - 14.0 °F 80% 29.96 in 0.8 mi Calm Calm - N/A Snow Snow
10:35 PM 17.6 °F - 14.0 °F 86% 29.96 in 1.0 mi Calm Calm - N/A Snow Snow
10:55 PM 17.6 °F 12.3 °F 12.2 °F 79% 29.98 in 0.8 mi NE 3.5 mph - N/A Snow Snow
11:15 PM 15.8 °F - 12.2 °F 86% 29.98 in 1.0 mi Calm Calm - N/A Snow Snow
11:35 PM 15.8 °F 8.6 °F 12.2 °F 86% 29.98 in 1.5 mi ESE 4.6 mph - N/A Snow Light Snow
11:55 PM 14.0 °F 2.0 °F 10.4 °F 86% 30.00 in 1.0 mi SE 9.2 mph - N/A Snow Snow